This is the latest recevied weather packets stored in our database for station/object DJ4RO-13. If no packets are shown the sender has not sent any weather packets the latest 10 day(s).
| Time | Temp. | Humidity | Pressure | Rain* | Wind** | Luminosity | Snow |
|---|---|---|---|---|---|---|---|
| 1777220845 | 13.89° C | 33% | 1029.5 hPa | 0 mm | - | 71 W/m² | - |
| 1777220525 | 13.89° C | 33% | 1029.7 hPa | 0 mm | - | 92 W/m² | - |
| 1777220205 | 13.89° C | 34% | 1029.6 hPa | 0 mm | - | 102 W/m² | - |
| 1777219885 | 13.89° C | 32% | 1029.7 hPa | 0 mm | - | 95 W/m² | - |
| 1777219565 | 14.44° C | 31% | 1029.6 hPa | 0 mm | - | 82 W/m² | - |
| 1777219245 | 14.44° C | 30% | 1029.5 hPa | 0 mm | - | 116 W/m² | - |
| 1777218932 | 14.44° C | 30% | 1029.4 hPa | 0 mm | - | 124 W/m² | - |
| 1777218621 | 14.44° C | 31% | 1029.6 hPa | 0 mm | - | 129 W/m² | - |
| 1777218301 | 14.44° C | 29% | 1029.6 hPa | 0 mm | - | 145 W/m² | - |
| 1777217981 | 14.44° C | 30% | 1029.6 hPa | 0 mm | - | 116 W/m² | - |
| 1777217672 | 14.44° C | 30% | 1029.8 hPa | 0 mm | - | 140 W/m² | - |
| 1777217357 | 14.44° C | 29% | 1029.6 hPa | 0 mm | - | 178 W/m² | - |
| 1777217037 | 15° C | 29% | 1029.6 hPa | 0 mm | - | 217 W/m² | - |
| 1777216712 | 14.44° C | 29% | 1029.5 hPa | 0 mm | - | 220 W/m² | - |
| 1777216412 | 15° C | 28% | 1029.7 hPa | 0 mm | - | 236 W/m² | - |
| 1777216109 | 14.44° C | 28% | 1029.6 hPa | 0 mm | - | 246 W/m² | - |
| 1777215789 | 15° C | 30% | 1029.5 hPa | 0 mm | - | 257 W/m² | - |
| 1777215469 | 14.44° C | 31% | 1029.5 hPa | 0 mm | - | 267 W/m² | - |
| 1777215149 | 14.44° C | 31% | 1029.6 hPa | 0 mm | - | 280 W/m² | - |
| 1777214829 | 13.89° C | 31% | 1029.6 hPa | 0 mm | - | 291 W/m² | - |
| 1777214511 | 15° C | 30% | 1029.7 hPa | 0 mm | - | 302 W/m² | - |
| 1777214192 | 15° C | 33% | 1029.6 hPa | 0 mm | - | 313 W/m² | - |
| 1777213892 | 14.44° C | 32% | 1029.7 hPa | 0 mm | - | 324 W/m² | - |
| 1777213592 | 15° C | 31% | 1029.9 hPa | 0 mm | - | 334 W/m² | - |
| 1777213277 | 15° C | 33% | 1029.9 hPa | 0 mm | - | 342 W/m² | - |
* Rain latest hour (hover to see other rain measurements)
** Current wind speed in m/s (hover to see current wind gust speed)